[[{"header":{"parameterUnit":"m.s-1","parameterCategory":2,"la1":30.2991,"la2":30.254,"lo1":-89.0895,"lo2":-89.0444,"dy":0.0017,"dx":0.0017,"nx":28,"ny":28,"refTime":"2023-07-30T03:00:00:Z","depth":"0","parameterNumber":2,"parameterNumberName":"U-component_of_CURRENTS"},"data":[0,0,0,0,0,0,0,0,0,0,0,0,0,0,0,0,0,0,0,0,0,0,0,0,0,0,0,0,0,0,0,0,0,0,0,0,0,0,0,0,0,0,0,0,0,0,0,0,0,0,0,0,0,0,0,0,0,0,0.3887,0.3887,0,0.3878,0.3878,0.3878,0.3847,0.3847,0.3846,0.3845,0.3839,0.3839,0.384,0,0,0,0,0,0,0,0,0,0,0,0,0,0.3931,0.393,0.3887,0.3887,0.3886,0.3878,0.3878,0.3878,0.3847,0.3847,0.3846,0.3845,0.3838,0.3839,0.384,0,0,0,0,0,0,0,0,0,0,0,0,0,0.3916,0.3929,0.3887,0.387,0.3869,0.3878,0.3878,0.3878,0.3848,0.3847,0.3846,0.3845,0.3838,0.3839,0.384,0.3864,0,0,0.3842,0.3842,0,0,0,0,0,0,0,0,0.3916,0.3914,0.3873,0.3872,0.387,0.3863,0.3891,0.3874,0.3848,0.3855,0.3845,0.3844,0.3848,0.3848,0.3848,0.3864,0.3864,0.3842,0.3842,0.3842,0.3843,0,0,0,0,0,0,0,0.3917,0.3914,0.3883,0.3873,0.3871,0.3882,0.3879,0.3888,0.3857,0.3855,0.3852,0.3852,0.3847,0.3847,0.3848,0.3863,0.3842,0.3842,0.3843,0.3843,0.3945,0.3947,0,0,0,0,0,0,0.3917,0.3915,0.3883,0.3883,0.3891,0.3882,0.3878,0.3866,0.3857,0.3855,0.3853,0.3851,0.3847,0.3847,0.3847,0.3935,0.3842,0.3843,0.3843,0.3943,0.3945,0.3948,0,0,0,0,0,0,0.3918,0.3914,0.3884,0.39,0.3897,0.3882,0.3869,0.3866,0.3868,0.3856,0.3853,0.3857,0.3846,0.3846,0.3856,0.3932,0.3843,0.3844,0.394,0.3943,0.3947,0.4072,0,0,0,0,0,0,0.3919,0.3914,0.3911,0.3899,0.3896,0.3895,0.387,0.3867,0.3869,0.3866,0.3859,0.3857,0.3845,0.3855,0.3857,0.3931,0.3845,0.3937,0.3941,0.3945,0.4065,0.4079,0.4091,0,0,0,0,0,0.392,0.3916,0.391,0.3907,0.3889,0.3896,0.3896,0.3882,0.3871,0.3879,0.3869,0.3857,0.3885,0.3857,0.3859,0.3935,0.3935,0.394,0.3945,0.4059,0.4076,0.4091,0,0,0,0,0,0,0.3943,0.3913,0.3905,0.3895,0.39,0.3891,0.3895,0.389,0.389,0.3886,0.387,0.3869,0.3925,0.3898,0.3867,0.3976,0.3916,0.3921,0.4002,0.4018,0.4031,0.4041,0.3845,0,0,0,0,0,0.3945,0.3924,0.3918,0.3912,0.3913,0.3908,0.391,0.3906,0.3902,0.39,0.3898,0.3906,0.3949,0.3952,0.3976,0.4012,0.4017,0.4066,0.4079,0.4091,0.41,0.4186,0.4209,0.3965,0.3965,0.3965,0,0,0.3949,0.3933,0.3921,0.3914,0.3913,0.3935,0.3906,0.3914,0.3946,0.3902,0.3937,0.3958,0.3972,0.4032,0.4054,0.4013,0.4161,0.4097,0.4107,0.411,0.4194,0.4218,0.424,0.3968,0.3968,0.3967,0,0,0.3953,0.3938,0.3926,0.3939,0.3943,0.3953,0.3959,0.3962,0.3974,0.4007,0.4013,0.4064,0.4085,0.413,0.4154,0.4249,0.4242,0.4263,0.4326,0.4411,0.4432,0.4451,0.4479,0.4499,0.4255,0.4255,0.4255,0,0.3962,0.3944,0.3931,0.3943,0.3959,0.3966,0.3987,0.4017,0.4027,0.4053,0.4029,0.4134,0.4145,0.4256,0.4295,0.4286,0.4306,0.4267,0.4431,0.4449,0.4466,0.449,0.4511,0.4262,0.4261,0.426,0.4259,0,0.396,0.3962,0.3965,0.3979,0.4007,0.4022,0.4065,0.4105,0.4123,0.4148,0.4247,0.4274,0.4331,0.4368,0.4359,0.4503,0.4469,0.4453,0.4393,0.4499,0.4516,0.4536,0.4271,0.4269,0.4267,0.4265,0,0,0.3923,0.3952,0.3952,0.3977,0.4023,0.4049,0.4128,0.4193,0.4259,0.4297,0.4391,0.4477,0.449,0.4518,0.454,0.4613,0.4753,0.4584,0.4585,0.4616,0.491,0.469,0.4689,0.4773,0.4777,0.4781,0.487,0,0.3919,0.3941,0.3966,0.4025,0.4044,0.4108,0.4187,0.4263,0.4326,0.4425,0.4494,0.4589,0.455,0.4605,0.4674,0.4758,0.4811,0.4727,0.4798,0.4799,0.4596,0.4707,0.446,0.4502,0.4889,0.4892,0.4894,0,0.3885,0.3916,0.3949,0.4048,0.4067,0.4124,0.4258,0.4333,0.4481,0.4535,0.4634,0.4689,0.4826,0.4777,0.4933,0.4882,0.49,0.4938,0.4942,0.4705,0.4615,0.4461,0.4522,0.4462,0.4923,0.4921,0.4919,0,0.3826,0.39,0.3925,0.3954,0.4073,0.413,0.4215,0.4355,0.4438,0.4619,0.47,0.4838,0.4925,0.5005,0.5044,0.5018,0.5196,0.5163,0.4971,0.4954,0.4737,0.4692,0.4748,0.5263,0.5263,0.5262,0.5262,0,0.3778,0.3807,0.3906,0.3924,0.4015,0.4111,0.4232,0.4339,0.4507,0.4609,0.4747,0.4848,0.4992,0.5088,0.5113,0.5086,0.5239,0.5,0.4978,0.4766,0.4725,0.4652,0.4636,0.5266,0.5265,0.5264,0.5264,0,0.3694,0.3735,0.3794,0.3928,0.3974,0.4047,0.423,0.4325,0.4485,0.4636,0.4702,0.4896,0.4995,0.5083,0.5219,0.5135,0.5016,0.5105,0.481,0.4747,0.4439,0.4436,0.4275,0.417,0.4911,0.4906,0.4902,0,0.3648,0.366,0.3788,0.3833,0.3892,0.4018,0.4105,0.4288,0.4383,0.4631,0.4693,0.4854,0.4884,0.4979,0.491,0.4886,0.4842,0.4635,0.452,0.4398,0.4385,0.4259,0.4177,0.4299,0.429,0.4283,0.4278,0,0.3613,0.3648,0.371,0.3782,0.3864,0.3964,0.4097,0.4162,0.4365,0.4462,0.456,0.4607,0.4655,0.4502,0.4474,0.4443,0.4402,0.4479,0.4476,0.4,0.3751,0.3645,0.4246,0.4215,0.4221,0.4226,0.4229,0.4232,0.3605,0.3627,0.369,0.3739,0.3814,0.3864,0.3876,0.3998,0.4074,0.4121,0.4302,0.4237,0.4208,0.4091,0.4049,0.3843,0.3894,0.3719,0.3758,0.3666,0.3454,0.3862,0.3716,0.3719,0.3722,0.3725,0.3727,0,0.3578,0.3594,0.365,0.3668,0.3662,0.3747,0.382,0.3773,0.3734,0.3796,0.3784,0.3697,0.353,0.3522,0.3357,0.3199,0.3091,0.3137,0.2984,0.2969,0.3451,0.3312,0.2921,0.2921,0.2921,0.2921,0.2921,0.2921,0.3573,0.3565,0.3555,0.349,0.3493,0.3408,0.3392,0.3322,0.3308,0.3153,0.3048,0.3077,0.3205,0.312,0.2952,0.287,0.2761,0.2509,0.2636,0.3067,0.3127,0.3184,0.3054,0.2615,0.2615,0.1996,0.1992,0.1989]},{"header":{"parameterUnit":"m.s-1","parameterCategory":2,"la1":30.2991,"la2":30.254,"lo1":-89.0895,"lo2":-89.0444,"dy":0.0017,"dx":0.0017,"nx":28,"ny":28,"refTime":"2023-07-30T03:00:00:Z","depth":"0","parameterNumber":3,"parameterNumberName":"V-component_of_CURRENTS"},"data":[0,0,0,0,0,0,0,0,0,0,0,0,0,0,0,0,0,0,0,0,0,0,0,0,0,0,0,0,0,0,0,0,0,0,0,0,0,0,0,0,0,0,0,0,0,0,0,0,0,0,0,0,0,0,0,0,0,0,0.0438,0.0438,0,0.0393,0.0392,0.0392,0.0351,0.0351,0.035,0.035,0.0296,0.0295,0.0294,0,0,0,0,0,0,0,0,0,0,0,0,0,0.0439,0.0439,0.0438,0.0438,0.0438,0.0393,0.0392,0.0391,0.0351,0.0351,0.035,0.035,0.0297,0.0295,0.0294,0,0,0,0,0,0,0,0,0,0,0,0,0,0.0419,0.0439,0.0438,0.0413,0.0411,0.0393,0.0392,0.0391,0.0351,0.035,0.035,0.035,0.0297,0.0295,0.0294,0.0293,0,0,0.0289,0.0288,0,0,0,0,0,0,0,0,0.042,0.0419,0.0417,0.0415,0.0412,0.0378,0.0373,0.0359,0.0351,0.0372,0.035,0.0349,0.0324,0.032,0.0311,0.0291,0.0289,0.0289,0.0287,0.0287,0.0286,0,0,0,0,0,0,0,0.0422,0.042,0.0419,0.0417,0.0414,0.0387,0.0383,0.0369,0.035,0.037,0.0367,0.0365,0.0323,0.0313,0.0309,0.0288,0.0289,0.0287,0.0286,0.0285,0.0297,0.0298,0,0,0,0,0,0,0.0434,0.0422,0.042,0.0417,0.0417,0.0387,0.0384,0.0388,0.035,0.0345,0.0366,0.0363,0.0316,0.0311,0.0307,0.0344,0.0287,0.0285,0.0284,0.0295,0.0297,0.0298,0,0,0,0,0,0,0.0434,0.0435,0.0422,0.0419,0.0416,0.0388,0.0393,0.0388,0.0381,0.0347,0.0341,0.0365,0.0315,0.031,0.0306,0.034,0.0284,0.0283,0.0294,0.0296,0.0298,0.0392,0,0,0,0,0,0,0.0435,0.0435,0.0442,0.0421,0.0417,0.0421,0.0394,0.0387,0.0381,0.0377,0.0345,0.0339,0.0314,0.0309,0.0305,0.0337,0.0282,0.0292,0.0295,0.0297,0.0387,0.0397,0.0405,0,0,0,0,0,0.0435,0.0448,0.0443,0.0442,0.0428,0.0422,0.0418,0.0394,0.0381,0.0385,0.0366,0.034,0.0322,0.0309,0.0303,0.0335,0.0291,0.0294,0.0297,0.0383,0.0395,0.0405,0,0,0,0,0,0,0.0448,0.0445,0.0438,0.0449,0.0441,0.0416,0.0415,0.0402,0.0388,0.0387,0.0352,0.0345,0.0355,0.0332,0.0318,0.0346,0.0304,0.0306,0.0372,0.0382,0.0391,0.0422,0.028,0,0,0,0,0,0.0457,0.0467,0.0457,0.0465,0.0464,0.0442,0.0436,0.0425,0.041,0.0403,0.0383,0.0367,0.0363,0.0361,0.0347,0.0361,0.0336,0.038,0.0389,0.0396,0.0418,0.0415,0.0426,0.0308,0.0308,0.0308,0,0,0.0463,0.0463,0.0468,0.0469,0.0458,0.0475,0.0437,0.0438,0.0459,0.0401,0.0419,0.0394,0.0372,0.0389,0.0392,0.0374,0.0411,0.04,0.0407,0.0425,0.0419,0.043,0.0441,0.031,0.031,0.0309,0,0,0.0486,0.0483,0.0502,0.0505,0.0503,0.0497,0.0503,0.0489,0.0489,0.0501,0.0472,0.0471,0.0455,0.0455,0.0451,0.0502,0.0455,0.0495,0.0571,0.0568,0.0578,0.0586,0.0546,0.055,0.0505,0.0505,0.0505,0,0.0493,0.0524,0.0505,0.0528,0.0544,0.0515,0.0549,0.0547,0.0536,0.0553,0.0521,0.0524,0.0494,0.0535,0.055,0.0525,0.0501,0.0532,0.0581,0.0588,0.0596,0.0553,0.0556,0.051,0.0509,0.0509,0.0508,0,0.0536,0.0562,0.0574,0.0603,0.0614,0.0637,0.064,0.0657,0.0652,0.0649,0.0679,0.0641,0.065,0.0638,0.0608,0.0654,0.0612,0.0588,0.0555,0.0613,0.0563,0.0566,0.0517,0.0515,0.0514,0.0512,0,0,0.0556,0.0598,0.0606,0.0646,0.0662,0.0686,0.0727,0.0766,0.0816,0.0791,0.0855,0.0827,0.0804,0.08,0.0764,0.0759,0.0767,0.0703,0.07,0.0667,0.0736,0.068,0.0675,0.0753,0.0755,0.0756,0.0673,0,0.0601,0.0672,0.068,0.076,0.0802,0.0808,0.0859,0.0888,0.0903,0.0955,0.0924,0.096,0.0868,0.0889,0.0865,0.0811,0.0781,0.0791,0.0682,0.0679,0.0626,0.0679,0.0678,0.0603,0.0675,0.0675,0.0675,0,0.0648,0.0697,0.0778,0.087,0.089,0.0936,0.1032,0.1076,0.1124,0.1137,0.1151,0.1126,0.113,0.1043,0.0958,0.0969,0.086,0.0793,0.0788,0.0711,0.0628,0.0561,0.0603,0.0517,0.0677,0.0677,0.0677,0,0.0691,0.0774,0.0851,0.0877,0.0962,0.1018,0.1074,0.1133,0.1208,0.1267,0.1331,0.1292,0.1316,0.119,0.1037,0.1006,0.0931,0.0867,0.07,0.0692,0.0659,0.0647,0.0614,0.0793,0.0793,0.0793,0.0793,0,0.0744,0.0811,0.0883,0.0932,0.1055,0.1086,0.1225,0.1269,0.1365,0.149,0.1437,0.1523,0.1359,0.1294,0.1106,0.0922,0.0975,0.0729,0.0684,0.0688,0.068,0.0575,0.0488,0.079,0.0791,0.0791,0.0792,0,0.0782,0.0818,0.0926,0.1034,0.1078,0.1172,0.1336,0.1445,0.151,0.1679,0.1716,0.1716,0.1628,0.1426,0.1236,0.1035,0.0768,0.0755,0.0751,0.0708,0.0453,0.0369,0.0234,0.0189,0.0559,0.0557,0.0556,0,0.0808,0.0861,0.1004,0.1086,0.1145,0.1288,0.1405,0.1509,0.1638,0.1808,0.1907,0.1877,0.1872,0.1552,0.1204,0.0865,0.0726,0.0627,0.0563,0.046,0.0334,0.0275,0.0245,0.0539,0.0537,0.0536,0.0535,0,0.0876,0.0921,0.1017,0.1177,0.131,0.1472,0.1646,0.1769,0.1925,0.2064,0.2216,0.2223,0.1926,0.1604,0.1138,0.0887,0.0556,0.059,0.0507,0.0342,0.0255,0.0185,0.0543,0.0525,0.0526,0.0527,0.0527,0.0528,0.0936,0.1013,0.1136,0.1287,0.1442,0.1639,0.1792,0.1985,0.2198,0.24,0.2395,0.2402,0.1968,0.1333,0.1021,0.048,0.0452,0.0301,0.0211,0.0166,0.0124,0.0442,0.0361,0.0361,0.0361,0.0361,0.0361,0,0.1009,0.1099,0.1244,0.1433,0.1602,0.1674,0.1943,0.2109,0.2367,0.2493,0.2581,0.2337,0.1795,0.1269,0.0536,0.0187,0.0079,0.0006,-0.0048,-0.0059,0.0255,0.026,0.0128,0.0128,0.0128,0.0128,0.0129,0.0129,0.1057,0.1191,0.1257,0.1523,0.1665,0.1911,0.2067,0.2303,0.2448,0.259,0.2555,0.2499,0.2131,0.0869,0.0089,-0.0096,-0.0257,-0.0362,-0.0427,-0.0185,-0.0163,-0.0141,-0.015,-0.0366,-0.0367,-0.0666,-0.0669,-0.0672]}],[{"header":{"parameterUnit":"m.s-1","parameterCategory":2,"la1":30.2991,"la2":30.254,"lo1":-89.0895,"lo2":-89.0444,"dy":0.0017,"dx":0.0017,"nx":28,"ny":28,"refTime":"2023-07-30T03:00:00:Z","depth":"2","parameterNumber":2,"parameterNumberName":"U-component_of_CURRENTS"},"data":[0,0,0,0,0,0,0,0,0,0,0,0,0,0,0,0,0,0,0,0,0,0,0,0,0,0,0,0,0,0,0,0,0,0,0,0,0,0,0,0,0,0,0,0,0,0,0,0,0,0,0,0,0,0,0,0,0,0,0.332,0.332,0,0.3323,0.3323,0.3323,0.3341,0.3341,0.3342,0.3343,0.3363,0.3363,0.3363,0,0,0,0,0,0,0,0,0,0,0,0,0,0.3324,0.3324,0.332,0.332,0.332,0.3323,0.3323,0.3322,0.3341,0.3342,0.3342,0.3343,0.3364,0.3363,0.3363,0,0,0,0,0,0,0,0,0,0,0,0,0,0.3321,0.3324,0.332,0.3332,0.3334,0.3323,0.3323,0.3322,0.334,0.3342,0.3343,0.3344,0.3364,0.3363,0.3363,0.334,0,0,0.3362,0.3362,0,0,0,0,0,0,0,0,0.3321,0.332,0.333,0.3331,0.3333,0.3336,0.3332,0.333,0.334,0.3334,0.3343,0.3344,0.3357,0.3357,0.3351,0.3341,0.3341,0.3362,0.3362,0.3362,0.3362,0,0,0,0,0,0,0,0.3321,0.332,0.3318,0.333,0.3332,0.3336,0.3337,0.3331,0.3337,0.3335,0.3337,0.3342,0.3358,0.3351,0.3351,0.3342,0.3362,0.3362,0.3362,0.3362,0.3439,0.3441,0,0,0,0,0,0,0.3327,0.332,0.3318,0.3318,0.3333,0.3336,0.3336,0.3331,0.3337,0.334,0.3341,0.3343,0.3351,0.3352,0.3352,0.344,0.3362,0.3362,0.3362,0.3437,0.344,0.3442,0,0,0,0,0,0,0.3326,0.3326,0.3317,0.3323,0.3323,0.3335,0.3329,0.333,0.3344,0.3342,0.3345,0.3356,0.3351,0.3353,0.3372,0.3437,0.3362,0.3362,0.3434,0.3438,0.3441,0.3542,0,0,0,0,0,0,0.3326,0.3325,0.3329,0.3323,0.3323,0.3327,0.3328,0.333,0.3346,0.3348,0.3355,0.3357,0.3352,0.3372,0.3372,0.3435,0.3362,0.3432,0.3436,0.344,0.3536,0.3548,0.3559,0,0,0,0,0,0.3326,0.3329,0.3328,0.3329,0.3324,0.3328,0.3328,0.3338,0.3346,0.3353,0.3364,0.3358,0.3399,0.3373,0.3372,0.3437,0.343,0.3435,0.3439,0.3531,0.3546,0.3559,0,0,0,0,0,0,0.3328,0.333,0.3331,0.3332,0.3337,0.3333,0.3345,0.3347,0.3358,0.337,0.3365,0.3367,0.3423,0.3403,0.3374,0.3473,0.3422,0.3426,0.3492,0.3506,0.3517,0.3517,0.3361,0,0,0,0,0,0.3329,0.3336,0.3335,0.3338,0.3344,0.3345,0.3351,0.3359,0.3366,0.3373,0.3384,0.3403,0.3437,0.3448,0.3467,0.3495,0.3498,0.3543,0.3555,0.3565,0.3565,0.3639,0.3658,0.3458,0.3458,0.3458,0,0,0.3334,0.3334,0.334,0.334,0.3345,0.3358,0.3351,0.3369,0.3393,0.3373,0.3417,0.3443,0.3454,0.351,0.3533,0.3502,0.3623,0.3571,0.358,0.3574,0.3647,0.3666,0.3683,0.3461,0.3461,0.346,0,0,0.3342,0.3344,0.3353,0.3367,0.3383,0.338,0.339,0.3404,0.3427,0.3456,0.3478,0.3529,0.3552,0.359,0.3607,0.3684,0.3687,0.371,0.3761,0.3834,0.3851,0.3866,0.3891,0.3907,0.3709,0.3709,0.3709,0,0.3351,0.3345,0.3357,0.3377,0.3383,0.3393,0.3402,0.3432,0.3457,0.3495,0.3484,0.3584,0.3591,0.3681,0.3719,0.3713,0.3742,0.3708,0.385,0.3865,0.3879,0.39,0.3917,0.3714,0.3714,0.3713,0.3713,0,0.3364,0.3369,0.3379,0.3399,0.3414,0.3423,0.3459,0.3509,0.3532,0.3563,0.3661,0.3681,0.3744,0.3772,0.3765,0.3888,0.3873,0.3864,0.3816,0.3906,0.3921,0.3937,0.3722,0.372,0.3719,0.3717,0,0,0.3343,0.3377,0.338,0.341,0.342,0.3452,0.3503,0.3555,0.3631,0.3677,0.3767,0.3833,0.3869,0.389,0.3917,0.3974,0.4091,0.3968,0.3969,0.3991,0.424,0.4072,0.4072,0.4127,0.4131,0.4134,0.421,0,0.3336,0.3361,0.3377,0.3426,0.3436,0.3489,0.3532,0.3608,0.3671,0.3778,0.3842,0.3935,0.3909,0.397,0.4025,0.4095,0.414,0.407,0.4148,0.4149,0.399,0.4087,0.3739,0.3765,0.4225,0.4227,0.4229,0,0.332,0.3339,0.3358,0.3441,0.3457,0.35,0.3611,0.3669,0.381,0.3872,0.3978,0.4038,0.4154,0.4112,0.4244,0.4213,0.423,0.4255,0.4259,0.4074,0.4011,0.3751,0.3776,0.4255,0.4253,0.4251,0.4249,0,0.3276,0.3337,0.335,0.3376,0.346,0.352,0.3579,0.3696,0.3776,0.3962,0.4041,0.417,0.4246,0.4318,0.4346,0.4334,0.4463,0.4447,0.4298,0.4285,0.3984,0.3937,0.4524,0.4524,0.4524,0.4524,0.4524,0,0.3236,0.3272,0.3353,0.3379,0.3442,0.3521,0.3628,0.3724,0.3864,0.3956,0.4097,0.4179,0.4309,0.4384,0.4404,0.4386,0.4507,0.4319,0.4307,0.4006,0.3963,0.4377,0.4359,0.4527,0.4526,0.4525,0.4525,0,0.3179,0.322,0.3276,0.338,0.3418,0.3482,0.3634,0.3709,0.3865,0.3996,0.4062,0.4229,0.4317,0.4388,0.4495,0.4429,0.4453,0.4403,0.4012,0.3951,0.4213,0.42,0.4279,0.4274,0.4269,0.4266,0.4263,0,0.3146,0.3155,0.3264,0.3302,0.3354,0.3463,0.3498,0.367,0.3752,0.3991,0.403,0.4186,0.4205,0.4286,0.4231,0.4218,0.4348,0.3885,0.3783,0.4215,0.4196,0.4189,0.4181,0.343,0.342,0.3412,0.3406,0,0.3096,0.3136,0.3192,0.3227,0.3289,0.3364,0.346,0.3511,0.3698,0.3793,0.3885,0.3932,0.3988,0.3803,0.3796,0.3752,0.3866,0.3722,0.4314,0.3532,0.3416,0.3397,0.3417,0.3336,0.3343,0.3348,0.3352,0.3355,0.3067,0.3077,0.313,0.3159,0.3219,0.3231,0.3227,0.3315,0.3379,0.3454,0.362,0.356,0.3571,0.3365,0.3247,0.3165,0.3435,0.3297,0.3321,0.3353,0.3228,0.311,0.2947,0.2951,0.2955,0.2959,0.2962,0,0.2994,0.3009,0.3043,0.3061,0.3039,0.3126,0.3156,0.3082,0.3033,0.3139,0.3168,0.2897,0.2754,0.2778,0.2514,0.2489,0.2475,0.2411,0.2368,0.2438,0.2501,0.2332,0.1814,0.181,0.1807,0.1804,0,0,0.2964,0.2941,0.2929,0.2859,0.2872,0.2775,0.2746,0.2647,0.2653,0.255,0.2505,0.2698,0.2716,0.2265,0.2177,0.1946,0.2192,0.187,0.2792,0.2815,0.2873,0.3008,0.2826,0,0,0,0,0]},{"header":{"parameterUnit":"m.s-1","parameterCategory":2,"la1":30.2991,"la2":30.254,"lo1":-89.0895,"lo2":-89.0444,"dy":0.0017,"dx":0.0017,"nx":28,"ny":28,"refTime":"2023-07-30T03:00:00:Z","depth":"2","parameterNumber":3,"parameterNumberName":"V-component_of_CURRENTS"},"data":[0,0,0,0,0,0,0,0,0,0,0,0,0,0,0,0,0,0,0,0,0,0,0,0,0,0,0,0,0,0,0,0,0,0,0,0,0,0,0,0,0,0,0,0,0,0,0,0,0,0,0,0,0,0,0,0,0,0,0.0269,0.0269,0,0.0231,0.0231,0.023,0.0203,0.0203,0.0203,0.0203,0.016,0.0158,0.0157,0,0,0,0,0,0,0,0,0,0,0,0,0,0.0265,0.0266,0.0269,0.0269,0.0269,0.0231,0.0231,0.023,0.0203,0.0203,0.0203,0.0203,0.016,0.0159,0.0157,0,0,0,0,0,0,0,0,0,0,0,0,0,0.025,0.0266,0.027,0.0252,0.025,0.0231,0.0231,0.023,0.0203,0.0203,0.0203,0.0203,0.016,0.0159,0.0157,0.0148,0,0,0.0152,0.0151,0,0,0,0,0,0,0,0,0.0251,0.025,0.0255,0.0253,0.0251,0.0223,0.0213,0.0203,0.0203,0.0219,0.0203,0.0203,0.0182,0.0178,0.0169,0.0146,0.0145,0.0152,0.0151,0.015,0.015,0,0,0,0,0,0,0,0.0252,0.0251,0.0253,0.0255,0.0253,0.0228,0.0226,0.0211,0.02,0.0218,0.0216,0.0215,0.018,0.017,0.0168,0.0144,0.0152,0.015,0.0149,0.0149,0.0141,0.0142,0,0,0,0,0,0,0.0263,0.0252,0.0254,0.0252,0.0253,0.0229,0.0226,0.0231,0.02,0.0196,0.0215,0.0214,0.0173,0.017,0.0166,0.0193,0.015,0.0149,0.0148,0.0141,0.0142,0.0142,0,0,0,0,0,0,0.0263,0.0264,0.0255,0.0252,0.0249,0.0229,0.0235,0.023,0.0226,0.0198,0.0194,0.0216,0.0173,0.0168,0.0163,0.019,0.0148,0.0146,0.014,0.0141,0.0142,0.0223,0,0,0,0,0,0,0.0263,0.0264,0.0272,0.0253,0.025,0.0253,0.0235,0.023,0.0226,0.0224,0.0198,0.0193,0.0173,0.0166,0.0162,0.0187,0.0145,0.0139,0.014,0.0142,0.0219,0.0227,0.0233,0,0,0,0,0,0.0264,0.0276,0.0273,0.0273,0.0261,0.0253,0.025,0.0233,0.0227,0.0228,0.0214,0.0194,0.0173,0.0165,0.016,0.0185,0.0138,0.014,0.0142,0.0216,0.0225,0.0233,0,0,0,0,0,0,0.0273,0.0274,0.027,0.0281,0.0272,0.025,0.0251,0.024,0.0228,0.023,0.0201,0.0196,0.02,0.018,0.0172,0.0187,0.0153,0.0154,0.0212,0.022,0.0227,0.0249,0.0144,0,0,0,0,0,0.0281,0.0294,0.0284,0.0292,0.0292,0.0273,0.0268,0.026,0.0247,0.0242,0.0226,0.0211,0.0202,0.0201,0.0185,0.0193,0.0166,0.0206,0.0213,0.0219,0.0233,0.0216,0.0223,0.0148,0.0148,0.0148,0,0,0.0287,0.0288,0.0296,0.0296,0.0287,0.0299,0.027,0.0271,0.0286,0.0239,0.0255,0.0231,0.0207,0.0217,0.0218,0.0206,0.0223,0.0222,0.0227,0.0238,0.0218,0.0226,0.0232,0.015,0.0149,0.0149,0,0,0.0308,0.0308,0.0328,0.033,0.0328,0.0319,0.0324,0.0313,0.0313,0.0319,0.0295,0.0288,0.0273,0.0266,0.0259,0.0293,0.0255,0.0291,0.0351,0.0334,0.0341,0.0346,0.0308,0.0309,0.0301,0.0301,0.0301,0,0.0314,0.0341,0.033,0.0351,0.0362,0.0335,0.0361,0.0357,0.0347,0.0363,0.0336,0.0327,0.0298,0.0322,0.0332,0.0311,0.0289,0.0323,0.0345,0.0349,0.0353,0.0313,0.0313,0.0305,0.0305,0.0304,0.0304,0,0.0355,0.0377,0.0389,0.0413,0.042,0.0436,0.0435,0.045,0.0444,0.0441,0.0457,0.0415,0.0417,0.0403,0.0377,0.0402,0.0372,0.035,0.0326,0.0365,0.032,0.0319,0.0311,0.031,0.0308,0.0307,0,0,0.0377,0.0412,0.042,0.0457,0.0459,0.0482,0.0508,0.0534,0.0579,0.0551,0.0598,0.0562,0.0542,0.0532,0.0498,0.048,0.0472,0.0437,0.0434,0.0405,0.0425,0.0391,0.0386,0.046,0.046,0.0461,0.0378,0,0.0415,0.0476,0.0479,0.0548,0.0582,0.0583,0.0616,0.064,0.0647,0.0685,0.0646,0.0669,0.0591,0.0605,0.0571,0.051,0.0476,0.0496,0.0387,0.0384,0.0354,0.0386,0.0386,0.0312,0.0377,0.0377,0.0376,0,0.0461,0.0499,0.0566,0.0642,0.066,0.0698,0.0773,0.0805,0.0834,0.0842,0.0844,0.0813,0.0794,0.0719,0.0618,0.0638,0.054,0.0471,0.0466,0.0409,0.0349,0.0285,0.0307,0.0374,0.0374,0.0374,0.0374,0,0.0504,0.0572,0.0635,0.0658,0.0723,0.0774,0.0817,0.0857,0.0921,0.0957,0.1004,0.0948,0.0948,0.0827,0.0671,0.0657,0.0544,0.0503,0.0369,0.0364,0.033,0.0322,0.042,0.042,0.0421,0.0421,0.0421,0,0.0553,0.0615,0.0671,0.0718,0.0821,0.0844,0.0963,0.0995,0.1065,0.1164,0.1099,0.1151,0.0978,0.0891,0.0723,0.0548,0.0578,0.0389,0.0351,0.0356,0.0351,0.038,0.0376,0.0418,0.0418,0.0419,0.0419,0,0.0596,0.0625,0.0721,0.081,0.0847,0.0931,0.1073,0.116,0.1208,0.1338,0.1363,0.1318,0.1206,0.1002,0.0802,0.0632,0.0457,0.0375,0.0381,0.0346,0.0269,0.0271,0.0233,0.0232,0.023,0.0229,0.0228,0,0.0622,0.0668,0.0793,0.0867,0.0919,0.1045,0.1134,0.1222,0.1332,0.1447,0.152,0.145,0.1403,0.1078,0.0782,0.0483,0.044,0.0273,0.0242,0.0288,0.0255,0.0259,0.0262,0.0215,0.0214,0.0213,0.0213,0,0.0679,0.0721,0.0808,0.0946,0.1062,0.1203,0.135,0.1457,0.1579,0.1672,0.1758,0.1724,0.1433,0.1125,0.0717,0.0507,0.0324,0.0247,0.031,0.0269,0.0266,0.0235,0.024,0.0205,0.0206,0.0207,0.0207,0.0207,0.0728,0.0796,0.0905,0.1043,0.1179,0.1349,0.148,0.1628,0.1792,0.194,0.1905,0.1839,0.1514,0.0978,0.0635,0.0271,0.0295,0.0141,0.0145,0.0151,0.0169,0.0166,0.0087,0.0088,0.0088,0.0088,0.0088,0,0.0782,0.0864,0.0993,0.1167,0.1315,0.1386,0.1612,0.1719,0.1896,0.2009,0.2051,0.1709,0.1368,0.0991,0.0458,0.0145,0.0119,0.0025,0.0064,0.0073,0.0081,0.0098,-0.0004,-0.0005,-0.0006,-0.0007,0,0,0.0819,0.0938,0.0999,0.1238,0.1372,0.1575,0.1708,0.1845,0.1953,0.2028,0.2001,0.193,0.1466,0.1066,0.0636,0.0321,0.0269,0.0246,0.0349,0.0456,0.0468,0.0171,0.021,0,0,0,0,0]}],[{"header":{"parameterUnit":"m.s-1","parameterCategory":2,"la1":30.2991,"la2":30.254,"lo1":-89.0895,"lo2":-89.0444,"dy":0.0017,"dx":0.0017,"nx":28,"ny":28,"refTime":"2023-07-30T03:00:00:Z","depth":"4","parameterNumber":2,"parameterNumberName":"U-component_of_CURRENTS"},"data":[0,0,0,0,0,0,0,0,0,0,0,0,0,0,0,0,0,0,0,0,0,0,0,0,0,0,0,0,0,0,0,0,0,0,0,0,0,0,0,0,0,0,0,0,0,0,0,0,0,0,0,0,0,0,0,0,0,0,0.1982,0.1983,0,0.2029,0.2029,0.2029,0.2069,0.207,0.2071,0.2071,0.2126,0.2126,0.2127,0,0,0,0,0,0,0,0,0,0,0,0,0,0.1915,0.1916,0.1982,0.1983,0.1984,0.2029,0.2029,0.2029,0.2069,0.207,0.2071,0.2072,0.2125,0.2126,0.2127,0,0,0,0,0,0,0,0,0,0,0,0,0,0.1948,0.1916,0.1982,0.2011,0.2014,0.2028,0.2029,0.2029,0.2069,0.207,0.2071,0.2072,0.2125,0.2126,0.2127,0.2113,0,0,0.2131,0.2131,0,0,0,0,0,0,0,0,0.1946,0.195,0.2006,0.2009,0.2013,0.2047,0.2026,0.2059,0.2069,0.2045,0.2071,0.2073,0.2101,0.2104,0.2106,0.2115,0.2117,0.2131,0.2132,0.2132,0.2133,0,0,0,0,0,0,0,0.1944,0.1949,0.1997,0.2007,0.2011,0.2018,0.2024,0.2032,0.2064,0.2047,0.2051,0.2061,0.2103,0.2105,0.2108,0.2118,0.2131,0.2132,0.2133,0.2133,0.2236,0.2238,0,0,0,0,0,0,0.1944,0.1946,0.1996,0.1999,0.1985,0.2019,0.2025,0.2032,0.2064,0.2071,0.206,0.2062,0.2102,0.2107,0.211,0.2194,0.2132,0.2133,0.2134,0.2234,0.2236,0.2239,0,0,0,0,0,0,0.1942,0.1948,0.1994,0.1976,0.1983,0.2019,0.2027,0.2033,0.2077,0.2074,0.2081,0.2103,0.2104,0.2108,0.215,0.2193,0.2134,0.2135,0.2232,0.2235,0.2238,0.2299,0,0,0,0,0,0,0.194,0.1947,0.1974,0.1976,0.1984,0.2024,0.2026,0.2033,0.208,0.2085,0.2112,0.2116,0.2105,0.2149,0.2151,0.2193,0.2136,0.2229,0.2233,0.2237,0.2294,0.2303,0.2311,0,0,0,0,0,0.1938,0.1957,0.1975,0.1982,0.2013,0.2025,0.2031,0.2057,0.2082,0.2101,0.2125,0.2118,0.2175,0.2151,0.2153,0.2197,0.2227,0.2232,0.2236,0.229,0.2302,0.2311,0,0,0,0,0,0,0.1939,0.1963,0.1983,0.201,0.2031,0.2034,0.2064,0.2082,0.2116,0.2138,0.2135,0.214,0.2197,0.2189,0.2162,0.224,0.2204,0.2209,0.2244,0.2255,0.2263,0.2271,0.2137,0,0,0,0,0,0.1953,0.1983,0.1997,0.2027,0.204,0.2063,0.2083,0.2102,0.2122,0.2141,0.2159,0.2185,0.221,0.2227,0.2244,0.2279,0.2287,0.2313,0.2322,0.2329,0.234,0.2394,0.2408,0.2254,0.2254,0.2254,0,0,0.1962,0.1983,0.2002,0.2032,0.2053,0.2069,0.2078,0.2118,0.2145,0.214,0.2197,0.222,0.2229,0.2272,0.2297,0.2274,0.2378,0.2335,0.2341,0.2348,0.24,0.2415,0.2428,0.2257,0.2256,0.2256,0,0,0.1977,0.2016,0.204,0.206,0.2103,0.2109,0.2131,0.2159,0.2193,0.2241,0.2252,0.2298,0.2334,0.2344,0.2353,0.242,0.2426,0.2443,0.2488,0.254,0.2553,0.2565,0.2591,0.2604,0.2442,0.2442,0.2442,0,0.1992,0.2016,0.2049,0.2072,0.2091,0.213,0.2147,0.2182,0.2226,0.2261,0.2273,0.2356,0.2363,0.2413,0.2442,0.2439,0.247,0.2443,0.2551,0.2563,0.2574,0.2597,0.2611,0.2445,0.2445,0.2445,0.2444,0,0.2008,0.204,0.2056,0.2096,0.2123,0.2147,0.2187,0.2234,0.2284,0.2322,0.2409,0.2428,0.2479,0.2493,0.249,0.2575,0.2573,0.2559,0.2521,0.2593,0.2613,0.2627,0.245,0.2449,0.2448,0.2447,0,0,0.1992,0.2054,0.2062,0.2082,0.2137,0.2152,0.2212,0.2266,0.2326,0.2393,0.2468,0.2522,0.2567,0.2581,0.2594,0.2638,0.2735,0.2645,0.2646,0.2665,0.2856,0.2651,0.2645,0.2756,0.2759,0.2761,0.2837,0,0.1991,0.2029,0.2063,0.2099,0.2113,0.2168,0.2219,0.2289,0.2363,0.2451,0.2512,0.2598,0.2591,0.2643,0.2687,0.2732,0.2776,0.2715,0.2789,0.2791,0.2595,0.2655,0.277,0.2847,0.285,0.2852,0.2854,0,0.1987,0.2011,0.2048,0.2101,0.2116,0.2156,0.2248,0.23,0.243,0.2507,0.2606,0.2669,0.2761,0.2748,0.2853,0.2827,0.2857,0.2876,0.2879,0.2675,0.261,0.2763,0.2878,0.2876,0.2874,0.2872,0.2871,0,0.1947,0.1995,0.2026,0.2045,0.2116,0.2163,0.2212,0.2332,0.2399,0.2566,0.2648,0.2759,0.2841,0.2899,0.2945,0.2929,0.3048,0.3016,0.2852,0.2838,0.2973,0.296,0.3095,0.3095,0.3095,0.3095,0.3095,0,0.1912,0.1936,0.2022,0.2037,0.2083,0.2156,0.2241,0.2321,0.2463,0.2547,0.2688,0.2765,0.2896,0.2969,0.2988,0.2953,0.3084,0.2869,0.2847,0.2996,0.2984,0.2982,0.2968,0.3098,0.3097,0.3097,0.3096,0,0.185,0.1914,0.1941,0.2028,0.2068,0.2104,0.2235,0.2289,0.2456,0.2572,0.2637,0.2815,0.2906,0.2984,0.3082,0.2986,0.2983,0.2941,0.3098,0.3083,0.2728,0.2717,0.2753,0.2747,0.2741,0.2737,0.2733,0,0.1812,0.1831,0.1921,0.1947,0.1993,0.2072,0.2123,0.2276,0.2332,0.2565,0.2594,0.277,0.2859,0.283,0.2926,0.2931,0.2898,0.2867,0.2786,0.2719,0.2696,0.2693,0.269,0.2724,0.2723,0.2721,0.272,0,0.172,0.1779,0.1803,0.1863,0.1919,0.1952,0.2041,0.2074,0.2245,0.2422,0.2507,0.2566,0.2659,0.2712,0.2741,0.2739,0.2863,0.2808,0.2818,0.2743,0.2684,0.2666,0.2669,0.2701,0.2703,0.2705,0.2706,0,0.1653,0.1647,0.1709,0.1739,0.1803,0.1802,0.1866,0.1928,0.2009,0.226,0.2284,0.247,0.264,0.2614,0.2638,0.2618,0.257,0.2464,0.2492,0.2514,0.2395,0.2283,0.2164,0,0,0,0,0,0.1566,0.1554,0.1577,0.1587,0.1645,0.1689,0.1789,0.1861,0.2035,0.2033,0.2156,0.2234,0.2297,0.239,0.232,0.2507,0.2564,0.2409,0.2453,0.2594,0.2616,0.2495,0,0,0,0,0,0,0.1505,0.1531,0.1525,0.1459,0.1455,0.1492,0.1555,0.1676,0.168,0.1884,0.1933,0.2088,0.2182,0.2326,0.2282,0.2303,0.2276,0.2522,0.2515,0.2582,0.2602,0.262,0.2502,0,0,0,0,0]},{"header":{"parameterUnit":"m.s-1","parameterCategory":2,"la1":30.2991,"la2":30.254,"lo1":-89.0895,"lo2":-89.0444,"dy":0.0017,"dx":0.0017,"nx":28,"ny":28,"refTime":"2023-07-30T03:00:00:Z","depth":"4","parameterNumber":3,"parameterNumberName":"V-component_of_CURRENTS"},"data":[0,0,0,0,0,0,0,0,0,0,0,0,0,0,0,0,0,0,0,0,0,0,0,0,0,0,0,0,0,0,0,0,0,0,0,0,0,0,0,0,0,0,0,0,0,0,0,0,0,0,0,0,0,0,0,0,0,0,0.0144,0.0144,0,0.0122,0.0122,0.0122,0.0106,0.0106,0.0106,0.0106,0.0081,0.0081,0.008,0,0,0,0,0,0,0,0,0,0,0,0,0,0.0137,0.0138,0.0144,0.0144,0.0144,0.0122,0.0122,0.0122,0.0106,0.0106,0.0106,0.0106,0.0081,0.0081,0.008,0,0,0,0,0,0,0,0,0,0,0,0,0,0.013,0.0138,0.0144,0.0134,0.0133,0.0122,0.0122,0.0121,0.0106,0.0106,0.0106,0.0106,0.0082,0.0081,0.008,0.0076,0,0,0.0077,0.0077,0,0,0,0,0,0,0,0,0.013,0.013,0.0136,0.0135,0.0134,0.0118,0.011,0.0106,0.0106,0.0116,0.0106,0.0106,0.0094,0.0092,0.0087,0.0074,0.0073,0.0077,0.0076,0.0076,0.0076,0,0,0,0,0,0,0,0.0131,0.013,0.0135,0.0136,0.0134,0.0118,0.0118,0.0109,0.0105,0.0115,0.0114,0.0113,0.0093,0.0088,0.0086,0.0073,0.0077,0.0076,0.0076,0.0075,0.0058,0.0058,0,0,0,0,0,0,0.0137,0.0131,0.0136,0.0134,0.0133,0.0119,0.0118,0.0122,0.0105,0.0102,0.0113,0.0112,0.0089,0.0087,0.0085,0.0096,0.0076,0.0075,0.0075,0.0058,0.0058,0.0058,0,0,0,0,0,0,0.0137,0.0138,0.0136,0.0132,0.0131,0.0119,0.0124,0.0122,0.0121,0.0103,0.0101,0.0115,0.0089,0.0086,0.0082,0.0094,0.0075,0.0074,0.0058,0.0058,0.0058,0.0106,0,0,0,0,0,0,0.0137,0.0138,0.0145,0.0133,0.0132,0.0135,0.0124,0.0121,0.0121,0.012,0.0105,0.0102,0.0089,0.0083,0.0081,0.0092,0.0073,0.0058,0.0058,0.0058,0.0105,0.0108,0.0111,0,0,0,0,0,0.0137,0.0147,0.0146,0.0147,0.0142,0.0135,0.0133,0.0123,0.0121,0.0122,0.0112,0.0103,0.0083,0.0083,0.008,0.0091,0.0058,0.0058,0.0058,0.0103,0.0108,0.0111,0,0,0,0,0,0,0.0144,0.0146,0.0145,0.0154,0.0148,0.0133,0.0135,0.0129,0.0122,0.0124,0.0106,0.0102,0.01,0.0088,0.0088,0.0085,0.0068,0.0068,0.0103,0.0107,0.011,0.0128,0.0072,0,0,0,0,0,0.0151,0.0161,0.0154,0.0161,0.0161,0.015,0.0147,0.0143,0.0134,0.0131,0.012,0.0109,0.0098,0.0097,0.0083,0.0086,0.0063,0.009,0.0093,0.0096,0.0107,0.0074,0.0076,0.0059,0.0059,0.0059,0,0,0.0155,0.0158,0.0163,0.0164,0.0159,0.0168,0.0148,0.015,0.016,0.013,0.014,0.0118,0.0099,0.0099,0.0098,0.0093,0.0087,0.0096,0.0099,0.0109,0.0075,0.0076,0.0078,0.0059,0.0059,0.0059,0,0,0.017,0.0172,0.0187,0.0188,0.0188,0.0182,0.0185,0.0177,0.0178,0.0181,0.016,0.0147,0.0136,0.0123,0.0116,0.0128,0.0101,0.0124,0.0163,0.013,0.0132,0.0133,0.0103,0.0101,0.0131,0.0131,0.0131,0,0.0176,0.0196,0.0188,0.0203,0.0212,0.0193,0.0212,0.0208,0.02,0.0208,0.0192,0.0171,0.0149,0.0151,0.0153,0.0137,0.0116,0.0152,0.0136,0.0136,0.0136,0.0105,0.0102,0.0134,0.0133,0.0133,0.0133,0,0.0203,0.022,0.0228,0.0246,0.0252,0.0264,0.0262,0.0268,0.0264,0.026,0.026,0.0224,0.0216,0.02,0.0182,0.0177,0.016,0.0139,0.0129,0.0141,0.0107,0.0103,0.0137,0.0136,0.0135,0.0135,0,0,0.0217,0.0243,0.0249,0.0274,0.0281,0.0294,0.0311,0.0326,0.0352,0.0327,0.0349,0.0313,0.0293,0.0283,0.0251,0.0222,0.0194,0.0189,0.0186,0.0165,0.0125,0.0112,0.0106,0.0171,0.0171,0.0171,0.0101,0,0.0243,0.0287,0.0292,0.0339,0.0364,0.0363,0.0387,0.0398,0.04,0.0412,0.0372,0.0376,0.0326,0.0326,0.0286,0.0217,0.0186,0.0215,0.0112,0.0109,0.01,0.0102,0.017,0.0098,0.0097,0.0096,0.0096,0,0.0273,0.0302,0.0352,0.0405,0.0418,0.0446,0.0494,0.0514,0.0518,0.052,0.0506,0.0472,0.0431,0.0383,0.0275,0.0296,0.0222,0.016,0.0155,0.0127,0.0089,0.0082,0.0088,0.0088,0.0089,0.009,0.009,0,0.0302,0.035,0.0397,0.0413,0.0461,0.0497,0.0528,0.0552,0.0591,0.0593,0.0609,0.0549,0.0526,0.0422,0.0288,0.0286,0.0157,0.0136,0.0054,0.0052,0.0064,0.0064,0.0064,0.0064,0.0064,0.0064,0.0064,0,0.0333,0.0376,0.0422,0.0454,0.0529,0.0548,0.063,0.0649,0.0686,0.0738,0.0673,0.0681,0.0534,0.044,0.0313,0.0168,0.0173,0.0065,0.0035,0.0085,0.0088,0.0061,0.0061,0.0062,0.0062,0.0063,0.0063,0,0.0357,0.0382,0.0448,0.0515,0.0548,0.0606,0.071,0.0766,0.0786,0.0847,0.0852,0.0782,0.0664,0.0501,0.0326,0.0211,0.0068,0.0015,0.0083,0.0056,-0.0019,-0.0015,-0.0069,-0.007,-0.0071,-0.0072,-0.0072,0,0.037,0.0404,0.0497,0.0552,0.0592,0.0685,0.0755,0.0814,0.0872,0.0908,0.0931,0.0846,0.0776,0.0517,0.0337,0.0094,0.0055,-0.0027,-0.0023,-0.0008,-0.0032,-0.0027,-0.0022,-0.0074,-0.0074,-0.0074,-0.0074,0,0.0397,0.0431,0.049,0.0599,0.0687,0.0784,0.0884,0.0935,0.0999,0.1017,0.1006,0.0885,0.0747,0.0536,0.034,0.0164,0.002,-0.0037,-0.0036,-0.0033,-0.0014,-0.0036,-0.003,-0.0077,-0.0077,-0.0077,-0.0077,0,0.042,0.0462,0.0542,0.0643,0.075,0.0849,0.0906,0.0976,0.1034,0.1067,0.1061,0.0918,0.0839,0.0572,0.0392,0.0215,0.0174,0.0104,0.0097,0.0098,0.0157,0.0206,0.0191,0,0,0,0,0,0.0437,0.0492,0.0583,0.0694,0.0799,0.0866,0.0974,0.1019,0.1079,0.1083,0.108,0.0957,0.0712,0.0599,0.0424,0.0361,0.0127,0.0145,0.0039,-0.0094,-0.009,-0.0051,0,0,0,0,0,0,0.0452,0.0533,0.0579,0.0713,0.0797,0.0918,0.0991,0.1036,0.1034,0.1064,0.0935,0.0897,0.0651,0.0816,0.0416,0.0364,0.0267,0.0038,0.0033,-0.0096,-0.0093,-0.009,-0.0048,0,0,0,0,0]}]]